Weather History for Beaufort MCAS, SC

Change the Weather History Date:

Sunday, November 24, 2013

  Actual Average Record
Temperature  
Mean Temperature 48 °F -  
Max Temperature 59 °F 67 °F 88 °F (1942)
Min Temperature 37 °F 48 °F 21 °F (1970)
Degree Days  
Heating Degree Days 17    
Moisture  
Dew Point 22 °F    
Average Humidity 41    
Maximum Humidity 81    
Minimum Humidity 21    
Precipitation  
Precipitation 0.00 in - - ()
Sea Level Pressure  
Sea Level Pressure 30.36 in    
Wind  
Wind Speed 13 mph (NE)    
Max Wind Speed 21 mph    
Max Gust Speed 30 mph    
Visibility 10 miles    
Events      
Averages and records for this station are not official NWS values.
T = Trace of Precipitation, MM = Missing Value Source: NWS Daily Summary

Daily Weather History Graph

Daily Weather History Graph

Search for Another Location

Airport:

Trip Planner

Search our weather history database for the weather conditions in past years. The results will help you decide how hot, cold, wet, or windy it might be!

Date:

Astronomy

Nov. 24, 2013 Rise Set
Actual Time 7:00 AM EST 5:18 PM EST
Civil Twilight 6:34 AM EST 5:44 PM EST
Nautical Twilight 6:04 AM EST 6:14 PM EST
Astronomical Twilight 5:34 AM EST 6:44 PM EST
Moon 11:31 PM EST (11/24) 11:57 AM EST (11/24)
Length of Visible Light 11h 10m
Length of Day
10h 17m
Waning Gibbous, 61% of the Moon is Illuminated
Nov 24
Waning Gibbous
Nov 25
Last Quarter
Dec 2
New
Dec 9
First Quarter
Dec 17
Full

Hourly Weather History & Observations

Time (EST) Temp. Windchill Dew Point Humidity Pressure Visibility Wind Dir Wind Speed Gust Speed Precip Events Conditions
12:56 AM 59.0 °F - 53.1 °F 81% 30.12 in 10.0 mi North 9.2 mph - N/A   Overcast
1:56 AM 55.9 °F - 43.0 °F 62% 30.14 in 10.0 mi North 13.8 mph - N/A   Scattered Clouds
2:56 AM 53.1 °F - 39.9 °F 61% 30.17 in 10.0 mi North 12.7 mph - N/A   Mostly Cloudy
3:56 AM 50.0 °F - 39.9 °F 68% 30.18 in 10.0 mi North 8.1 mph - N/A   Clear
4:56 AM 48.0 °F - 27.0 °F 44% 30.22 in 10.0 mi NNE 17.3 mph 21.9 mph N/A   Clear
5:56 AM 46.0 °F 40.2 °F 24.1 °F 42% 30.26 in 10.0 mi NNE 12.7 mph 26.5 mph N/A   Clear
6:56 AM 44.1 °F 37.7 °F 24.1 °F 45% 30.30 in 10.0 mi NNE 12.7 mph - N/A   Clear
7:56 AM 44.1 °F 38.1 °F 21.9 °F 42% 30.33 in 10.0 mi NNE 11.5 mph - N/A   Clear
8:56 AM 45.0 °F 36.9 °F 21.0 °F 39% 30.36 in 10.0 mi NE 20.7 mph 29.9 mph N/A   Clear
9:56 AM 46.0 °F 38.3 °F 18.0 °F 33% 30.39 in 7.0 mi NNE 20.7 mph 27.6 mph N/A   Clear
10:04 AM 46.9 °F - 18.0 °F 32% 30.39 in 8.0 mi NE 18.4 mph 25.3 mph N/A   Partly Cloudy
10:56 AM 48.9 °F - 17.1 °F 28% 30.40 in 10.0 mi NNE 17.3 mph - N/A   Clear
11:56 AM 50.0 °F - 15.1 °F 25% 30.40 in 10.0 mi NNE 18.4 mph - N/A   Clear
12:56 PM 50.0 °F - 14.0 °F 24% 30.38 in 10.0 mi NNE 18.4 mph 25.3 mph N/A   Clear
1:56 PM 51.1 °F - 12.0 °F 21% 30.36 in 10.0 mi NE 17.3 mph 23.0 mph N/A   Clear
2:56 PM 51.1 °F - 15.1 °F 24% 30.36 in 10.0 mi NNE 16.1 mph - N/A   Partly Cloudy
3:56 PM 48.9 °F - 14.0 °F 25% 30.38 in 10.0 mi NE 12.7 mph - N/A   Partly Cloudy
4:56 PM 46.0 °F 40.6 °F 18.0 °F 33% 30.40 in 10.0 mi NE 11.5 mph - N/A   Scattered Clouds
5:56 PM 41.0 °F 34.3 °F 19.9 °F 43% 30.43 in 10.0 mi ENE 11.5 mph - N/A   Clear
6:56 PM 39.0 °F 32.3 °F 19.0 °F 45% 30.45 in 10.0 mi NE 10.4 mph - N/A   Clear
7:56 PM 37.0 °F 30.4 °F 18.0 °F 46% 30.48 in 10.0 mi NE 9.2 mph - N/A   Clear
8:56 PM 39.9 °F 33.4 °F 17.1 °F 40% 30.48 in 10.0 mi ENE 10.4 mph 17.3 mph N/A   Clear
9:56 PM 37.9 °F 32.1 °F 17.1 °F 43% 30.50 in 10.0 mi ENE 8.1 mph - N/A   Clear
10:56 PM 37.9 °F 31.5 °F 15.1 °F 39% 30.51 in 10.0 mi ENE 9.2 mph - N/A   Clear
11:56 PM 37.0 °F 29.8 °F 14.0 °F 39% 30.51 in 10.0 mi ENE 10.4 mph - N/A   Clear